Theta_e
307 306 307 306 307 307 299 289 281 297 301 284 283 280 285 290 289 292 290 292 293 290 292 289 290 291 294 299 298 292 291 287 284 288 290 295 294 294 292 288 282 283 282 282
306 306 305 306 307 305 292 284 287 297 298 278 279 284 286 288 287 287 288 289 296 295 292 288 291 293 295 298 297 292 291 285 281 282 287 290 290 292 293 289 286 282 280 282
305 305 306 306 306 305 292 287 281 286 289 287 281 280 282 284 291 289 290 289 296 293 292 293 291 292 294 298 299 296 294 287 285 283 288 288 287 289 291 288 281 282 285 285
304 305 306 306 306 305 292 285 282 283 280 283 284 283 285 283 284 290 292 288 293 292 289 291 290 293 294 298 298 294 291 282 286 287 288 289 290 289 290 289 290 286 289 288
304 305 305 305 306 304 289 282 285 286 285 285 284 283 281 283 285 287 287 287 293 294 291 292 290 293 293 293 292 293 291 282 284 280 287 289 288 291 292 292 292 291 288 288
305 305 304 305 304 300 288 287 288 286 285 284 281 281 282 284 287 290 292 292 293 293 295 297 298 299 296 296 294 292 288 284 281 276 283 284 279 288 290 292 293 292 287 293
305 304 304 304 304 299 290 288 287 285 280 284 282 285 286 286 287 285 292 294 292 297 300 300 297 295 294 297 296 296 286 285 283 278 282 274 284 291 294 292 293 295 295 292
304 304 304 304 301 301 291 289 287 285 281 283 284 285 285 286 287 286 288 291 296 301 297 288 285 284 286 285 289 292 292 286 281 279 272 279 283 286 290 289 289 294 294 295
304 304 303 302 301 300 290 288 289 290 282 283 285 285 286 284 284 285 286 292 296 299 292 285 280 278 281 280 282 287 291 290 284 280 277 275 282 288 292 291 283 293 294 294
303 302 302 301 301 300 291 287 290 288 283 285 285 284 284 286 285 284 285 286 289 291 286 283 281 278 282 280 279 282 283 284 282 282 277 281 284 286 293 279 283 289 292 294
302 301 301 300 300 299 291 287 291 287 284 284 286 286 283 283 286 284 285 287 287 286 284 284 283 280 279 278 282 285 283 282 281 278 275 278 287 288 286 288 286 287 288 289
301 301 300 300 299 299 295 286 292 291 285 285 288 287 287 286 285 283 286 286 285 290 286 285 283 276 279 277 278 286 282 286 283 285 284 287 286 288 289 289 288 288 288 288
301 300 300 300 299 298 293 285 287 288 285 284 285 284 288 290 288 289 284 287 291 289 292 286 285 281 280 276 275 285 284 288 283 284 286 286 288 286 288 289 288 288 288 288
300 300 299 298 297 296 292 285 287 287 285 278 282 290 287 290 291 290 291 290 293 291 290 285 284 282 283 280 282 284 284 286 281 280 283 285 286 288 290 288 287 287 286 286
297 297 297 297 297 294 289 286 286 287 284 277 280 285 287 289 290 289 290 290 288 287 286 285 282 281 281 280 282 280 284 284 285 282 286 288 288 288 287 286 286 286 286 285
298 297 297 297 294 294 285 278 285 287 285 280 274 283 283 285 288 287 286 286 286 286 285 284 283 284 283 281 279 281 280 280 281 282 284 286 286 287 286 286 284 284 285 284
296 296 296 294 293 286 278 276 283 290 286 278 274 276 283 283 285 285 284 287 284 285 284 282 283 282 285 284 279 275 274 274 277 277 280 284 284 284 283 283 281 279 277 277
292 293 293 293 293 288 279 282 289 287 280 278 272 274 277 283 280 280 284 283 284 282 283 283 280 283 284 275 271 270 269 272 275 273 276 279 280 279 278 279 279 276 275 275
292 292 291 283 279 273 275 289 288 282 278 270 269 267 269 280 280 281 282 283 278 283 278 279 281 275 264 264 265 265 264 265 266 269 274 274 274 274 274 274 274 273 272 271
290 282 272 268 272 287 285 274 271 271 268 268 266 271 271 277 276 274 277 279 276 274 276 279 275 265 266 265 263 263 263 264 265 270 271 268 268 268 268 267 269 269 269 268
275 267 266 273 284 272 264 261 264 262 262 263 263 269 268 277 271 272 276 273 275 273 273 274 273 266 264 264 263 262 262 263 263 264 265 266 267 267 265 264 263 263 263 263
271 271 271 268 265 262 262 252 258 259 256 259 258 264 269 270 275 270 271 268 271 270 269 273 270 263 260 260 260 261 260 260 261 262 262 262 262 264 263 262 262 261 262 262
268 264 260 263 259 258 253 251 255 253 255 257 258 259 265 269 273 267 266 264 263 265 269 267 262 260 259 258 258 259 259 259 259 260 260 261 260 260 260 261 262 262 261 262
262 257 256 254 250 251 250 251 251 257 259 257 258 255 264 264 269 266 264 263 264 261 261 262 258 257 257 258 257 257 256 256 257 257 258 258 260 258 258 258 259 261 260 260
255 256 252 251 254 254 254 253 252 255 256 257 255 259 266 264 263 262 261 262 260 262 262 257 256 255 255 255 255 255 255 255 255 256 256 257 257 258 257 257 258 259 260 260
253 252 254 252 251 250 248 245 248 255 258 256 256 254 258 262 262 261 259 258 259 261 255 255 255 255 254 253 253 254 254 255 255 255 255 256 256 255 256 258 257 257 258 258
250 251 245 247 246 249 247 247 250 257 251 251 252 256 257 261 262 260 257 258 255 251 251 252 253 253 253 252 252 252 252 253 254 254 255 255 256 257 258 258 257 256 257 257
Wind_Speed
26 27 27 27 26 27 9 5 6 9 6 4 3 4 8 5 5 11 14 10 12 17 24 15 13 27 21 27 25 19 6 7 7 4 4 6 4 13 4 7 6 3 4 7
24 26 28 27 28 24 5 5 4 7 1 6 5 3 6 7 9 11 6 7 22 17 18 13 8 22 3 22 21 21 10 5 10 3 7 3 9 9 7 5 4 7 7 7
26 26 26 26 27 20 6 6 7 1 1 2 5 6 6 7 9 16 10 8 11 25 23 10 16 18 5 25 20 12 9 5 7 20 27 10 11 8 5 6 5 5 9 4
24 24 25 24 25 15 4 3 3 5 7 11 5 2 1 2 5 12 9 7 19 27 20 11 16 19 11 18 16 5 7 5 4 7 10 10 18 17 14 10 11 9 16 14
23 25 24 22 22 11 5 5 5 3 4 5 13 9 5 7 3 7 6 9 19 24 23 16 30 24 22 29 10 11 3 5 6 4 11 15 22 23 24 26 21 16 5 8
23 22 22 21 22 7 4 1 3 4 7 5 7 5 7 5 1 11 12 10 19 26 32 14 18 12 9 15 27 25 10 8 7 5 8 11 2 29 30 24 21 25 14 19
26 22 20 19 19 5 4 2 4 2 2 5 5 3 7 4 5 5 7 9 16 13 20 21 16 10 7 22 17 14 8 8 4 6 12 5 10 18 24 26 28 28 21 8
23 20 20 20 10 7 4 2 4 3 1 3 4 5 3 4 7 5 4 6 8 22 19 11 8 3 5 6 8 7 6 5 7 8 6 4 7 8 27 22 27 25 29 13
21 21 19 15 10 10 5 3 2 2 4 3 2 2 3 3 3 2 5 6 5 17 7 4 5 5 7 7 5 5 9 8 5 4 6 14 5 8 12 6 16 19 20 17
21 18 16 14 12 8 5 2 2 2 3 1 2 2 2 2 3 2 3 3 4 5 3 4 4 3 7 9 15 13 10 4 7 9 2 8 9 8 18 10 13 11 20 24
21 18 15 14 12 13 5 1 2 3 3 2 3 2 3 3 1 2 1 2 2 3 4 4 4 4 6 6 8 16 12 11 6 4 3 16 10 17 25 7 2 5 6 9
20 17 13 10 9 10 6 3 1 2 5 2 1 0 1 1 2 3 3 2 0 3 5 1 4 4 4 6 7 5 6 12 12 15 9 2 6 7 5 5 8 5 8 6
18 16 15 14 11 9 7 3 1 3 4 1 1 2 4 0 4 4 2 2 3 3 1 3 3 6 4 5 4 11 3 5 5 6 7 5 7 2 3 3 6 6 6 9
20 18 18 17 16 15 9 5 3 3 2 4 1 3 3 9 8 3 4 4 3 2 2 2 2 4 1 3 5 4 4 9 7 3 3 2 2 5 9 5 6 6 6 5
19 17 15 15 15 16 10 5 4 4 3 3 1 1 3 6 8 10 6 3 2 3 3 3 3 2 3 0 3 3 4 1 9 5 9 6 7 8 7 9 8 8 8 6
16 15 12 7 1 2 3 5 3 8 3 4 3 2 5 5 6 8 9 5 3 2 2 2 2 2 1 3 4 5 9 10 10 5 7 4 5 5 5 8 9 7 8 7
18 19 21 20 15 7 6 4 5 14 1 4 2 4 4 4 3 3 4 3 2 2 2 3 2 3 5 3 3 10 12 13 11 12 11 3 6 2 5 8 8 8 7 6
12 12 12 13 13 11 5 3 14 7 4 4 3 3 4 8 5 4 4 4 3 5 2 2 3 2 2 4 8 12 15 14 8 18 14 5 3 7 8 7 9 10 8 6
11 8 8 5 8 5 4 20 7 3 6 4 4 3 3 7 4 3 3 3 4 3 3 3 3 5 7 6 12 12 14 11 15 18 9 11 11 9 10 7 8 12 8 7
8 8 7 6 4 14 8 10 7 9 7 7 4 3 3 4 4 4 3 3 3 3 3 3 5 4 7 9 8 9 12 14 15 8 7 10 7 10 9 8 7 8 7 7
6 5 1 4 13 6 6 5 7 5 7 5 3 3 4 4 4 3 4 1 2 2 3 3 2 4 4 10 10 11 12 12 11 8 7 7 6 4 6 7 9 8 8 6
4 3 1 4 8 6 9 3 5 8 1 6 3 4 4 5 2 3 4 2 3 2 3 3 3 3 7 9 10 11 11 11 9 9 9 9 10 8 6 6 6 5 5 5
5 7 8 7 7 14 8 4 6 5 5 5 6 5 3 5 3 2 4 6 1 1 4 3 2 4 6 8 8 8 8 9 8 9 9 8 8 9 7 6 5 5 6 5
7 6 9 6 6 3 3 4 4 4 3 6 4 4 3 3 5 2 5 3 3 4 3 1 1 4 6 7 7 6 8 8 8 8 8 8 7 6 6 6 6 5 6 6
6 7 5 4 3 0 2 2 2 3 3 4 4 3 1 3 4 3 1 6 3 1 1 1 1 3 4 5 6 6 7 7 6 6 6 6 7 6 5 6 6 6 5 5
6 10 4 2 4 4 4 3 3 3 5 2 2 2 5 4 1 5 2 3 1 2 1 1 2 2 2 3 4 5 5 6 6 5 5 5 6 6 5 3 4 5 5 4
7 3 1 2 2 4 3 2 3 3 3 2 1 5 3 3 2 1 2 2 2 2 3 1 1 2 3 3 3 4 5 6 6 6 6 6 6 6 4 3 4 4 3 2
Wind_Direction
150 150 152 153 151 149 122 111 111 158 156 117 191 193 201 175 230 221 251 285 180 172 165 164 154 181 179 179 171 162 182 114 137 137 311 198 157 184 157 172 212 207 138 268
149 149 157 157 157 155 122 92 107 172 206 159 200 227 239 231 234 235 247 245 213 169 174 156 167 184 128 169 171 166 174 131 126 103 357 339 207 195 158 119 102 201 137 251
154 158 157 159 156 164 96 124 130 141 214 174 179 179 215 210 227 241 235 265 232 160 189 139 183 170 194 167 172 126 99 145 174 194 198 108 173 174 168 126 144 158 217 195
156 157 159 160 161 160 92 66 160 161 174 209 213 140 343 228 250 215 208 268 229 172 166 148 169 147 151 177 161 113 116 127 144 137 143 133 170 167 183 199 191 188 225 206
167 162 163 164 166 145 76 123 148 137 136 149 182 196 208 218 254 228 216 234 203 177 176 176 160 156 167 182 142 163 238 155 116 13 161 162 184 188 191 204 202 226 124 232
161 162 164 165 164 134 105 303 29 104 169 167 169 197 204 217 312 237 219 214 215 190 192 175 173 147 109 179 172 178 160 133 130 187 126 103 352 200 197 204 199 206 198 217
157 163 161 163 165 166 126 175 105 108 232 191 199 223 193 233 246 252 265 249 239 175 110 95 74 62 41 160 167 168 139 125 86 151 128 183 239 189 206 201 208 212 226 162
150 152 152 154 152 119 94 96 102 121 125 199 206 218 182 287 274 252 267 255 241 136 108 108 101 68 65 22 25 91 69 104 82 153 191 273 288 194 190 183 227 219 222 195
132 138 139 144 141 111 86 78 83 121 159 194 330 243 161 261 248 264 262 276 312 135 124 114 129 154 126 145 110 13 89 73 115 141 172 206 218 189 147 82 271 208 215 214
123 126 132 132 132 123 96 83 87 135 130 63 342 259 230 209 267 274 284 339 357 11 110 102 125 119 154 154 148 159 142 143 158 172 191 282 245 162 133 138 244 192 194 194
118 115 112 120 127 136 98 125 2 124 100 46 358 331 321 313 288 279 222 161 312 25 96 116 135 137 195 105 144 165 157 150 164 118 166 255 174 147 173 158 264 167 156 158
104 101 100 116 136 149 137 104 360 32 79 99 95 148 200 342 292 282 275 337 43 156 99 126 112 112 126 152 155 170 148 183 168 193 206 243 190 190 193 141 149 183 122 138
91 88 87 83 89 108 121 124 35 55 106 87 104 321 304 255 265 196 293 323 332 53 50 140 152 129 142 144 231 147 248 157 171 104 225 196 172 67 123 149 144 146 133 136
80 80 80 81 76 81 95 80 324 99 127 109 256 287 14 305 338 234 254 286 298 19 43 105 118 106 225 175 147 149 179 141 153 271 278 37 253 218 173 147 108 109 89 127
76 78 77 84 85 86 83 88 60 46 97 149 208 246 349 345 360 8 6 18 3 0 40 31 75 104 95 6 88 78 345 109 196 226 177 178 201 203 141 139 170 155 132 115
62 64 59 47 102 86 58 37 5 21 16 90 53 264 334 341 355 15 24 15 13 57 74 92 66 304 77 88 96 45 23 1 4 344 325 348 353 121 139 144 156 155 143 143
57 57 62 63 69 70 74 154 302 334 6 80 30 355 350 328 324 10 4 6 33 42 81 51 73 19 21 39 71 4 2 340 356 357 337 31 18 21 41 103 91 83 78 73
33 33 47 62 79 97 39 331 348 352 86 63 78 310 25 8 351 4 8 352 5 22 52 48 27 48 48 81 21 3 357 337 7 351 344 322 39 48 47 67 107 94 87 90
3 14 32 27 33 30 279 316 352 36 84 91 57 20 327 347 1 341 356 349 37 14 31 35 8 20 47 3 347 359 359 3 324 314 350 24 40 39 36 45 43 99 84 72
18 38 42 5 287 311 337 6 17 20 4 23 53 312 326 342 338 345 3 22 33 36 18 299 61 82 90 35 16 360 353 354 350 350 8 0 20 30 31 30 41 61 65 74
34 38 81 248 327 40 32 35 48 335 25 14 314 343 315 344 29 338 7 21 345 48 7 16 70 82 50 8 12 9 2 2 2 0 16 15 22 51 73 50 40 53 56 54
176 169 30 10 30 29 70 355 347 41 329 324 324 317 330 300 350 19 342 81 3 61 313 43 57 63 20 2 356 3 2 356 3 3 22 30 33 27 54 59 58 54 58 41
35 41 46 32 322 39 55 353 337 17 333 348 337 322 340 326 9 357 36 54 250 309 40 81 50 12 10 0 354 348 3 353 5 12 16 27 41 34 35 50 41 63 68 40
67 55 25 66 356 44 178 187 211 267 312 328 308 282 327 304 4 346 61 260 38 35 42 15 42 15 348 356 357 354 350 354 1 4 7 16 21 37 29 27 16 38 51 39
61 51 48 56 228 231 227 244 6 313 300 327 344 303 270 311 30 42 57 23 23 69 234 270 3 356 354 354 356 351 344 342 348 350 358 8 5 14 34 20 19 24 30 39
61 35 64 356 62 316 4 4 306 298 325 315 44 317 29 1 34 34 360 107 284 278 261 325 342 12 15 345 336 332 332 336 338 342 342 348 5 352 339 347 31 28 28 40
47 14 46 139 134 198 240 159 269 312 40 54 48 61 205 301 29 34 3 126 245 246 289 278 261 289 303 313 313 328 331 334 340 336 340 336 335 316 320 6 6 356 354 5